EW1160 Weather Reports


Display with metric or nautical units.
time (UTC)temp
F
wind
direction
speed
MPH
gust
MPH
rain 1hr
in
rain 24hr
in
rain mn
in
humidity
%
barometer
mb
20260506184517 43 17 0.0 0.0 0.00 0.00 0.00 68 1010.8
20260506183015 42 4 0.0 0.0 0.00 0.00 0.00 68 1011.3
20260506181558 41 11 0.0 0.0 0.00 0.00 0.00 70 1011.4
20260506180057 42 29 0.0 0.0 0.00 0.00 0.00 74 1011.1
20260506174539 41 17 0.0 0.0 0.00 0.01 0.00 74 1011.2
20260506173048 41 16 0.0 0.0 0.00 0.01 0.00 76 1011.1
20260506171521 40 4 0.0 0.0 0.00 0.01 0.00 74 1011.2
20260506170021 42 4 0.0 0.0 0.00 0.01 0.00 74 1011.1
20260506164505 41 4 0.0 0.0 0.00 0.01 0.00 75 1011.1
20260506163005 42 347 0.0 0.0 0.00 0.01 0.00 74 1011.2
20260506161545 41 359 0.0 0.0 0.00 0.01 0.00 73 1011.1
20260506160044 40 4 0.0 0.0 0.00 0.01 0.00 74 1011.1
20260506154536 40 8 0.0 0.0 0.00 0.01 0.00 75 1011.2
20260506153024 40 18 0.0 0.0 0.00 0.01 0.00 74 1010.9
20260506151506 40 348 0.0 0.0 0.00 0.01 0.00 74 1010.9
20260506150006 40 354 0.0 0.0 0.00 0.01 0.00 73 1010.7
20260506144546 40 4 0.0 0.0 0.00 0.01 0.00 74 1010.5
20260506143044 40 350 0.0 0.0 0.00 0.01 0.00 74 1010.1
20260506141525 40 354 0.0 0.0 0.00 0.01 0.00 73 1009.9
20260506140024 40 4 0.0 0.0 0.00 0.01 0.00 75 1009.6
20260506134507 40 359 0.0 0.0 0.00 0.01 0.00 75 1009.4
20260506133004 40 336 0.0 0.0 0.00 0.01 0.00 75 1009.0
20260506131544 40 354 0.0 0.0 0.00 0.01 0.00 76 1008.9
20260506130043 39 23 0.0 0.0 0.00 0.01 0.00 77 1008.9
20260506124526 40 354 0.0 0.0 0.00 0.01 0.00 77 1008.9
20260506123024 39 359 0.0 0.0 0.00 0.01 0.00 78 1008.4
20260506121506 39 15 0.0 0.0 0.00 0.01 0.00 80 1008.2
20260506120005 39 359 0.0 0.0 0.00 0.01 0.00 82 1008.2
20260506114553 39 359 0.0 0.0 0.00 0.01 0.00 82 1008.0
20260506113044 39 33 0.0 0.0 0.00 0.01 0.00 83 1007.7
20260506111528 39 25 0.0 0.0 0.00 0.01 0.00 84 1007.4
20260506110023 38 8 0.0 0.0 0.00 0.01 0.00 86 1007.2
20260506104502 38 12 0.0 0.0 0.00 0.01 0.00 86 1006.7
20260506103002 38 354 0.0 0.0 0.00 0.01 0.00 85 1006.4
20260506101544 38 10 0.0 0.0 0.00 0.01 0.00 85 1006.5
20260506100046 39 4 0.0 0.0 0.00 0.01 0.00 86 1006.5
20260506094530 39 4 0.0 0.0 0.00 0.01 0.00 86 1006.3
20260506093047 39 350 0.0 0.0 0.00 0.01 0.00 86 1006.3
20260506091526 39 37 0.0 0.0 0.00 0.01 0.00 85 1006.2
20260506090024 40 12 0.0 0.0 0.00 0.01 0.00 83 1006.1
20260506084522 40 340 0.0 0.0 0.00 0.01 0.00 84 1006.1
20260506083021 41 29 0.0 0.0 0.00 0.01 0.00 86 1006.1
20260506081520 41 4 0.0 0.0 0.00 0.01 0.00 86 1006.1
20260506073111 41 335 0.0 0.0 0.00 0.01 0.00 87 1005.7
20260506071540 41 237 0.0 0.0 0.00 0.01 0.00 88 1005.7
20260506061604 44 354 0.0 0.0 0.00 0.01 0.00 86 1005.2
20260506044556 49 180 0.0 0.0 0.00 0.01 0.00 86 1005.3
20260506043052 49 179 0.0 0.0 0.00 0.01 0.00 85 1005.2
20260506041530 49 179 0.0 0.0 0.00 0.01 0.00 84 1005.5
20260506040029 50 179 0.0 0.0 0.00 0.01 0.00 84 1005.4
20260506034510 50 179 0.0 0.0 0.00 0.01 0.01 84 1005.4
20260506033009 50 179 0.0 0.0 0.00 0.01 0.01 84 1005.4
20260506031553 50 179 0.0 0.0 0.00 0.01 0.01 85 1005.5
20260506030051 50 179 0.0 0.0 0.00 0.01 0.01 86 1005.5
20260506024533 50 179 0.0 0.0 0.00 0.01 0.01 86 1005.6
20260506023031 50 179 0.0 0.0 0.00 0.01 0.01 86 1005.2
20260506021513 50 179 0.0 0.0 0.00 0.01 0.01 86 1005.2
20260506020023 50 179 0.0 0.0 0.00 0.01 0.01 86 1005.2
20260506014555 51 179 0.0 0.0 0.00 0.03 0.01 85 1005.2
20260506013054 51 179 0.0 0.0 0.00 0.03 0.01 85 1005.0
20260506011539 51 179 0.0 0.0 0.00 0.03 0.01 84 1005.0
20260506010035 51 179 0.0 0.0 0.00 0.03 0.01 84 1004.9
20260506004524 51 179 0.0 0.0 0.00 0.03 0.01 83 1004.7
20260506003019 52 179 0.0 0.0 0.00 0.03 0.01 82 1004.5
20260506001607 52 179 0.0 0.0 0.00 0.03 0.01 82 1004.5
20260506000124 52 179 0.0 0.0 0.00 0.03 0.01 81 1004.3
20260505234548 52 178 0.0 0.0 0.00 0.03 0.01 81 1004.2
20260505233052 53 178 0.0 0.0 0.00 0.03 0.01 81 1004.2
20260505231553 53 178 0.0 0.0 0.00 0.03 0.01 82 1004.3
20260505230050 53 177 0.0 0.0 0.00 0.03 0.01 82 1004.3
20260505224549 53 179 0.0 0.0 0.00 0.03 0.01 82 1004.4
20260505223045 52 164 0.0 0.0 0.00 0.03 0.01 81 1004.4
20260505221550 52 165 0.0 0.0 0.00 0.03 0.01 82 1004.4
20260505214534 51 188 0.0 0.0 0.00 0.03 0.01 82 1004.5
20260505213033 51 189 0.0 0.0 0.00 0.03 0.01 82 1004.4
20260505211555 51 184 0.0 0.0 0.00 0.03 0.01 81 1004.5
20260505210038 51 189 0.0 0.0 0.00 0.03 0.01 81 1004.5
20260505204537 51 183 0.0 0.0 0.00 0.03 0.01 81 1004.4
20260505203032 50 174 0.0 0.0 0.00 0.03 0.01 80 1004.6
20260505201537 50 169 0.0 0.0 0.00 0.03 0.01 79 1004.8
20260505200033 50 176 0.0 0.0 0.00 0.03 0.01 79 1004.9
20260505194531 50 172 0.0 0.0 0.00 0.03 0.01 78 1005.0
20260505193015 50 174 0.0 0.0 0.00 0.03 0.01 77 1005.1
20260505191518 50 156 0.0 0.0 0.00 0.03 0.01 76 1004.9
20260505190114 50 69 0.0 0.0 0.00 0.03 0.01 75 1004.6